Regional Weather Roundup
Issued by NWS

Home | Current Version | Previous Version | Text Only | Print | Product List | Glossary Off
Versions: 1 2 3 4 5 6 7 8 9 10 11 12 13 14 15 16 17 18 19 20 21 22 23 24 25 26 27 28 29 30 31 32 33 34 35 36 37 38 39 40 41 42 43 44 45 46 47 48 49 50

000
ASUS43 KLSX 271559
RWRMO

WEATHER SUMMARY FOR MISSOURI
NATIONAL WEATHER SERVICE SPRINGFIELD MO
1100 AM CDT WED MAY 27 2015

NOTE: "FAIR" INDICATES FEW OR NO CLOUDS BELOW 12,000 FEET WITH NO
       SIGNIFICANT WEATHER AND/OR OBSTRUCTIONS TO VISIBILITY.
       CURRENT SKY AND/OR WEATHER CONDITIONS ARE NOT AVAILABLE FOR
       CHILLICOTHE AND FARMINGTON.

MOZ001>031-035>038-043-044-053-054-271700-
...NORTHERN AND WESTERN MISSOURI...

CITY           SKY/WX    TMP DP  RH WIND       PRES   REMARKS
KANSAS CTY INT MOSUNNY   76  57  51 VRB5      30.10R
KANSAS C DTWN  SUNNY     77  55  46 NW3       30.09R
LEE`S SUMMIT   SUNNY     76  57  51 NE5       30.10S
ST JOSEPH      SUNNY     76  55  48 N3        30.08S
KIRKSVILLE     SUNNY     73  58  59 W8        30.08R

$$
MOZ066>068-077>081-088>096-101>105-271700-
...SOUTHWEST MISSOURI...

CITY           SKY/WX    TMP DP  RH WIND       PRES   REMARKS
SPRINGFIELD    SUNNY     75  64  68 VRB3      30.12R
JOPLIN         MOSUNNY   78  65  63 VRB5      30.11R

$$
MOZ032>034-039>042-045>050-055>058-069>072-271700-
...CENTRAL MISSOURI...

CITY           SKY/WX    TMP DP  RH WIND       PRES   REMARKS
COLUMBIA       SUNNY     76  59  55 NW9       30.09R
JEFFERSON CITY SUNNY     75  59  57 W12       30.08R
ROLLA          MOSUNNY   71  66  84 SW8       30.09S
SEDALIA        SUNNY     76  57  51 W7        30.11R

$$
MOZ051-052-059>065-271700-
...EAST CENTRAL MISSOURI...

CITY           SKY/WX    TMP DP  RH WIND       PRES   REMARKS
ST LOUIS INTL  PTSUNNY   77  62  59 W12       30.07R
SPIRIT OF STL  PTSUNNY   75  64  68 SW13      30.06R
ST CHARLES     PTSUNNY   75  63  66 W10       30.05R

$$
MOZ072>076-082>087-097>100-106>115-271700-
...SOUTH CENTRAL AND SOUTHEAST MISSOURI...

CITY           SKY/WX    TMP DP  RH WIND       PRES   REMARKS
CAPE GIRARDEAU PTSUNNY   75  64  68 S10       30.10R
FARMINGTON     MOSUNNY   72  61  68 W5        30.13F
POPLAR BLUFF   PTSUNNY   73  62  68 CALM      30.11S
WEST PLAINS    PTSUNNY   73  64  73 VRB3      30.14S

$$


USA.gov is the U.S. government's official web portal to all federal, state and local government web resources and services.